Miscellaneous Local Product
Issued by NWS Hastings, NE

Home | Current Version | Previous Version | Graphics & Text | Print | Product List | Glossary On
Versions: 1 2 3 4 5 6 7 8 9 10 11 12 13 14 15 16 17 18 19 20 21 22 23 24 25 26 27 28 29 30 31 32 33 34 35 36 37 38 39 40 41 42 43 44 45 46 47 48 49 50
000
AXUS43 KGID 081402
MISGRI

GID CWA HOURLY WEATHER ROUNDUP
NATIONAL WEATHER SERVICE HASTINGS NE
900 AM CDT TUE JUL 08 2014

NOTE: "FAIR" INDICATES FEW OR NO CLOUDS BELOW 12,000 FEET WITH NO
SIGNIFICANT WEATHER AND/OR OBSTRUCTIONS TO VISIBILITY.

...SOUTH CENTRAL NEBRASKA...

CITY           SKY/WX    TMP DP  RH WIND       PRES   REMARKS
GRAND ISLAND   SUNNY     69  57  65 NW10      30.09R
HASTINGS       SUNNY     69  54  58 NW13      30.10R
KEARNEY        SUNNY     66  55  68 NW10      30.12S
ORD            SUNNY     69  58  67 NW10      30.08R
YORK           SUNNY     68  61  77 NW12      30.06S
AURORA         SUNNY     68  61  77 NW8       30.08S
LEXINGTON      SUNNY     68  59  73 NW10G17   30.13F
HOLDREGE       SUNNY     69  56  64 W9        30.13S
HEBRON         MOSUNNY   71  60  68 NW8       30.07R

...NEBRASKA PANHANDLE...

CITY           SKY/WX    TMP DP  RH WIND       PRES   REMARKS
CHADRON        SUNNY     62  51  67 W5        30.20S
ALLIANCE       SUNNY     64  55  72 W8        30.22R
SCOTTSBLUFF    MOSUNNY   65  58  78 NW3       30.24R
SIDNEY         SUNNY     69  53  56 W3        30.26R

...WESTERN AND NORTH CENTRAL NEBRASKA...

CITY           SKY/WX    TMP DP  RH WIND       PRES   REMARKS
VALENTINE      SUNNY     65  55  70 W10       30.13R
AINSWORTH      SUNNY     66  55  68 NW8       30.13R
ONEILL         SUNNY     67  55  64 NW15      30.07S
BROKEN BOW     SUNNY     68  56  65 NW13      30.12S
IMPERIAL       SUNNY     70  56  61 N7        30.21R
NORTH PLATTE   SUNNY     67  56  67 NW9       30.16S
MCCOOK         SUNNY     72  58  61 N7        30.16R

...EASTERN NEBRASKA...

CITY           SKY/WX    TMP DP  RH WIND       PRES   REMARKS
NORFOLK        SUNNY     69  56  62 NW15      30.02R
SO SIOUX CITY  SUNNY     69  58  67 W14       29.95R
TEKAMAH        SUNNY     71  58  63 NW15      29.97R
ALBION         SUNNY     67  55  66 NW9       30.06R
OMAHA EPPLEY   MOSUNNY   71  58  63 NW13      29.98R
OFFUTT AFB     SUNNY     71  63  75 NW15      29.98R
MILLARD        SUNNY     70  60  70 W10       29.99R
LINCOLN        SUNNY     73  58  59 NW13      30.03R
NEBRASKA CITY  SUNNY     70  62  74 N9        29.99S
BEATRICE       SUNNY     67  60  78 NW9       30.03S
FALLS CITY     SUNNY     72  62  71 NW12      29.99R

...NORTHERN KANSAS...

CITY           SKY/WX    TMP DP  RH WIND       PRES   REMARKS
GOODLAND       MOSUNNY   68  60  75 E5        30.24R
HILL CITY      MOSUNNY   73  58  59 NW6       30.14R
NORTON         SUNNY     73  50  43 N13       30.12F
PHILLIPSBURG   SUNNY     73  57  56 NW12      30.11F
SMITH CENTER   SUNNY     72  57  60 NW12      30.10F
HAYS           PTSUNNY   72  61  68 N10       30.13R
RUSSELL        PTSUNNY   71  63  75 N12       30.07S
CONCORDIA      PTSUNNY   71  64  78 W9        30.07S
SALINA         CLOUDY    74  65  73 N16       30.05F
TOPEKA         MOSUNNY   74  65  73 NW7       30.00R



USA.gov is the U.S. government's official web portal to all federal, state and local government web resources and services.